Weather History for Pinedale, WY

Change the Weather History Date:

Tuesday, April 2, 2013

  Actual Average (KBPI) Record (KBPI)
Temperature  
Mean Temperature 39 °F 34 °F  
Max Temperature 55 °F 48 °F 60 °F (2013)
Min Temperature 23 °F 19 °F 0 °F (1980)
Degree Days  
Heating Degree Days 26 31  
Month to date heating degree days 63  
Since 1 July heating degree days 8758  
Cooling Degree Days 0 0  
Month to date cooling degree days 0  
Year to date cooling degree days 0  
Moisture  
Dew Point 17 °F    
Average Humidity 49    
Maximum Humidity 100    
Minimum Humidity 13    
Precipitation  
Precipitation 0.00 in 0.01 in 0.14 in (2001)
Month to date precipitation 0.03  
Year to date precipitation 1.13  
Sea Level Pressure  
Sea Level Pressure 30.06 in    
Wind  
Wind Speed 5 mph (NNE)    
Max Wind Speed 18 mph    
Max Gust Speed 23 mph    
Visibility 10 miles    
Events      
T = Trace of Precipitation, MM = Missing Value Source: NWS Daily Summary

Daily Weather History Graph

Daily Weather History Graph

Search for Another Location

Airport:

Trip Planner

Search our weather history database for the weather conditions in past years. The results will help you decide how hot, cold, wet, or windy it might be!

Date:

Astronomy

Apr. 02, 2013 Rise Set
Actual Time 6:59 AM MDT 7:46 PM MDT
Civil Twilight 6:30 AM MDT 8:15 PM MDT
Nautical Twilight 5:56 AM MDT 8:49 PM MDT
Astronomical Twilight 5:21 AM MDT 9:25 PM MDT
Moon 2:00 AM MDT 11:48 AM MDT
Length of Visible Light 13h 45m
Length of Day
12h 47m
Waning Gibbous, 55% of the Moon is Illuminated
Apr 2
Waning Gibbous
Apr 2
Last Quarter
Apr 10
New
Apr 18
First Quarter
Apr 25
Full

Hourly Weather History & Observations

Time (MDT) Temp. Windchill Dew Point Humidity Pressure Visibility Wind Dir Wind Speed Gust Speed Precip Events Conditions
12:15 AM 33.8 °F - 23.0 °F 65% 30.03 in 10.0 mi Calm Calm - N/A   Mostly Cloudy
12:35 AM 30.2 °F 24.3 °F 23.0 °F 75% 30.03 in 10.0 mi NNW 5.8 mph - N/A   Scattered Clouds
12:55 AM 32.0 °F 27.5 °F 26.6 °F 80% 30.05 in 10.0 mi WNW 4.6 mph - N/A   Mostly Cloudy
1:15 AM 30.2 °F 25.4 °F 26.6 °F 86% 30.05 in 10.0 mi WNW 4.6 mph - N/A   Mostly Cloudy
1:35 AM 32.0 °F 25.6 °F 26.6 °F 80% 30.05 in 10.0 mi NNW 6.9 mph - N/A   Scattered Clouds
1:55 AM 32.0 °F 25.6 °F 26.6 °F 80% 30.05 in 10.0 mi NW 6.9 mph - N/A   Clear
2:15 AM 32.0 °F 24.8 °F 28.4 °F 87% 30.05 in 10.0 mi NNW 8.1 mph - N/A   Scattered Clouds
2:35 AM 32.0 °F 26.4 °F 28.4 °F 87% 30.05 in 10.0 mi NW 5.8 mph - N/A   Scattered Clouds
2:55 AM 30.2 °F 24.3 °F 28.4 °F 93% 30.05 in 10.0 mi NNW 5.8 mph - N/A   Mostly Cloudy
3:15 AM 30.2 °F - 26.6 °F 86% 30.05 in 10.0 mi Calm Calm - N/A   Scattered Clouds
3:35 AM 28.4 °F - 26.6 °F 93% 30.05 in 10.0 mi Calm Calm - N/A   Clear
3:55 AM 26.6 °F 20.0 °F 24.8 °F 93% 30.05 in 10.0 mi NW 5.8 mph - N/A   Scattered Clouds
4:15 AM 26.6 °F 18.2 °F 26.6 °F 100% 30.05 in 10.0 mi West 8.1 mph - N/A   Scattered Clouds
4:35 AM 28.4 °F 19.1 °F 26.6 °F 93% 30.04 in 10.0 mi West 10.4 mph - N/A   Clear
4:55 AM 28.4 °F 20.4 °F 24.8 °F 86% 30.05 in 10.0 mi West 8.1 mph - N/A   Clear
5:15 AM 28.4 °F 22.2 °F 24.8 °F 86% 30.05 in 10.0 mi West 5.8 mph - N/A   Clear
5:35 AM 26.6 °F 20.0 °F 23.0 °F 86% 30.05 in 10.0 mi WNW 5.8 mph - N/A   Clear
5:55 AM 24.8 °F 17.9 °F 23.0 °F 93% 30.05 in 10.0 mi NW 5.8 mph - N/A   Clear
6:15 AM 23.0 °F - 21.2 °F 93% 30.05 in 10.0 mi Calm Calm - N/A   Clear
6:35 AM 24.8 °F 17.9 °F 23.0 °F 93% 30.06 in 10.0 mi WNW 5.8 mph - N/A   Clear
6:55 AM 24.8 °F 20.5 °F 23.0 °F 93% 30.06 in 10.0 mi NNW 3.5 mph - N/A   Clear
7:15 AM 24.8 °F - 23.0 °F 93% 30.06 in 10.0 mi Calm Calm - N/A   Clear
7:35 AM 26.6 °F 21.2 °F 23.0 °F 86% 30.07 in 10.0 mi WNW 4.6 mph - N/A   Clear
7:55 AM 30.2 °F 26.7 °F 26.6 °F 86% 30.07 in 10.0 mi WNW 3.5 mph - N/A   Clear
8:35 AM 32.0 °F - 26.6 °F 80% 30.08 in 10.0 mi Calm Calm - N/A   Clear
8:55 AM 35.6 °F 30.7 °F 24.8 °F 65% 30.08 in 10.0 mi West 5.8 mph - N/A   Clear
9:15 AM 35.6 °F 32.8 °F 24.8 °F 65% 30.07 in 10.0 mi WNW 3.5 mph - N/A   Clear
9:35 AM 37.4 °F - 26.6 °F 65% 30.08 in 10.0 mi Calm Calm - N/A   Scattered Clouds
9:55 AM 41.0 °F - 24.8 °F 53% 30.08 in 10.0 mi Calm Calm - N/A   Scattered Clouds
10:15 AM 42.8 °F - 23.0 °F 46% 30.07 in 10.0 mi Calm Calm - N/A   Clear
10:35 AM 42.8 °F 41.1 °F 23.0 °F 46% 30.07 in 10.0 mi West 3.5 mph - N/A   Clear
10:55 AM 44.6 °F - 19.4 °F 37% 30.07 in 10.0 mi Calm Calm - N/A   Clear
11:15 AM 46.4 °F - 19.4 °F 34% 30.07 in 10.0 mi Calm Calm - N/A   Clear
11:35 AM 48.2 °F - 17.6 °F 30% 30.07 in 10.0 mi Calm Calm - N/A   Clear
11:55 AM 48.2 °F - 17.6 °F 30% 30.07 in 10.0 mi East 5.8 mph - N/A   Clear
12:15 PM 48.2 °F - 17.6 °F 30% 30.07 in 10.0 mi Calm Calm - N/A   Clear
12:35 PM 50.0 °F - 14.0 °F 24% 30.06 in 10.0 mi NNE 4.6 mph - N/A   Scattered Clouds
12:55 PM 51.8 °F - 12.2 °F 21% 30.05 in 10.0 mi East 6.9 mph - N/A   Scattered Clouds
1:15 PM 53.6 °F - 10.4 °F 18% 30.05 in 10.0 mi NE 6.9 mph 18.4 mph N/A   Scattered Clouds
1:35 PM 53.6 °F - 10.4 °F 18% 30.05 in 10.0 mi Calm Calm - N/A   Scattered Clouds
1:55 PM 53.6 °F - 10.4 °F 18% 30.05 in 10.0 mi East 4.6 mph - N/A   Scattered Clouds
2:15 PM 53.6 °F - 10.4 °F 18% 30.05 in 10.0 mi ENE 8.1 mph 16.1 mph N/A   Scattered Clouds
2:35 PM 51.8 °F - 8.6 °F 18% 30.05 in 10.0 mi ENE 8.1 mph - N/A   Scattered Clouds
2:55 PM 53.6 °F - 8.6 °F 16% 30.05 in 10.0 mi NNE 12.7 mph 19.6 mph N/A   Scattered Clouds
3:15 PM 55.4 °F - 8.6 °F 15% 30.04 in 10.0 mi South 5.8 mph 17.3 mph N/A   Scattered Clouds
3:35 PM 55.4 °F - 8.6 °F 15% 30.04 in 10.0 mi NE 8.1 mph 16.1 mph N/A   Clear
3:55 PM 55.4 °F - 8.6 °F 15% 30.04 in 10.0 mi Calm Calm - N/A   Clear
4:15 PM 53.6 °F - 8.6 °F 16% 30.03 in 10.0 mi North 9.2 mph 16.1 mph N/A   Clear
4:35 PM 55.4 °F - 8.6 °F 15% 30.04 in 10.0 mi NE 9.2 mph - N/A   Clear
4:55 PM 55.4 °F - 8.6 °F 15% 30.04 in 10.0 mi ENE 13.8 mph 18.4 mph N/A   Clear
5:15 PM 55.4 °F - 6.8 °F 14% 30.04 in 10.0 mi ENE 18.4 mph 23.0 mph N/A   Scattered Clouds
5:35 PM 55.4 °F - 5.0 °F 13% 30.05 in 10.0 mi ENE 16.1 mph 20.7 mph N/A   Clear
5:55 PM 53.6 °F - 5.0 °F 14% 30.05 in 10.0 mi ENE 15.0 mph - N/A   Clear
6:15 PM 53.6 °F - 5.0 °F 14% 30.05 in 10.0 mi NE 13.8 mph - N/A   Scattered Clouds
6:35 PM 51.8 °F - 5.0 °F 15% 30.05 in 10.0 mi ENE 11.5 mph - N/A   Overcast
6:55 PM 51.8 °F - 6.8 °F 16% 30.05 in 10.0 mi East 6.9 mph - N/A   Overcast
7:15 PM 50.0 °F - 8.6 °F 19% 30.06 in 10.0 mi East 4.6 mph - N/A   Overcast
7:35 PM 46.4 °F 44.3 °F 8.6 °F 22% 30.06 in 10.0 mi ESE 4.6 mph - N/A   Overcast
7:55 PM 42.8 °F 40.1 °F 10.4 °F 27% 30.06 in 10.0 mi SE 4.6 mph - N/A   Overcast
8:15 PM 42.8 °F 40.1 °F 10.4 °F 27% 30.06 in 10.0 mi SSE 4.6 mph - N/A   Overcast
8:35 PM 41.0 °F 37.1 °F 8.6 °F 26% 30.07 in 10.0 mi SE 5.8 mph - N/A   Overcast
8:55 PM 39.2 °F 37.0 °F 10.4 °F 31% 30.08 in 10.0 mi ENE 3.5 mph - N/A   Mostly Cloudy
9:15 PM 41.0 °F 38.0 °F 8.6 °F 26% 30.09 in 10.0 mi SE 4.6 mph - N/A   Clear
9:35 PM 39.2 °F 35.0 °F 10.4 °F 31% 30.09 in 10.0 mi South 5.8 mph - N/A   Clear
9:55 PM 41.0 °F 39.0 °F 10.4 °F 29% 30.09 in 10.0 mi SE 3.5 mph - N/A   Clear
10:15 PM 37.4 °F 28.5 °F 12.2 °F 36% 30.11 in 10.0 mi NNW 15.0 mph - N/A   Clear
10:35 PM 33.8 °F 29.6 °F 12.2 °F 41% 30.13 in 10.0 mi WNW 4.6 mph - N/A   Clear
10:55 PM 35.6 °F - 12.2 °F 38% 30.13 in 10.0 mi Calm Calm - N/A   Clear
11:15 PM 32.0 °F - 12.2 °F 44% 30.13 in 10.0 mi Calm Calm - N/A   Clear
11:35 PM 32.0 °F 27.5 °F 12.2 °F 44% 30.13 in 10.0 mi NE 4.6 mph - N/A   Clear
11:55 PM 32.0 °F 27.5 °F 15.8 °F 51% 30.13 in 10.0 mi NE 4.6 mph - N/A   Mostly Cloudy